Preview of NWS' New Version of Forecast
This preview is not operational and should not be used for support decisions.
Latest weather observations around

West Memphis, West Memphis Municipal Airport (KAWM)

Using English Units (Switch to International System of Units)
Date/ Time (CDT) Wind (mph) Vis. (mi) Weather Sky Cond. Temp (°F) Rel. Humidity Wind Chill (°F) Heat Index (°F) Pressure Precip. (in)
Air Dwpt 6 hour Altimeter (inHg) Sea level (inHg) 1 hr 3 hr 6 hr
Max Min
Apr 25 09:53 5 10 Clear CLR 66 60     81%     30.04 30.03      
Apr 25 08:53 W 3 10 Clear CLR 63 60     90%     30.03 30.02      
Apr 25 07:53 Calm 10 Clear CLR 57 57     100%     30.03 30.02      
Apr 25 07:05 Calm 3 Fog/Mist CLR 52 52     100%     30.02        
Apr 25 06:59 Calm 1.25 Fog/Mist FEW002 51 51     100%     30.02        
Apr 25 06:53 Calm 0.75 Fog/Mist VV002 51 51     100%     30.02 30.01      
Apr 25 06:51 Calm 0.75 Fog/Mist VV002 52 52     100%     30.02        
Apr 25 06:50 Calm 0.5 Fog VV002 52 52     100%     30.02        
Apr 25 06:21 Calm 0.25 Fog VV001 51 51     100%     30.01        
Apr 25 06:13 SSE 3 0.5 Fog VV001 51 51     100%     30.01        
Apr 25 05:53 Calm 0.75 Fog/Mist VV002 51 51     100%     30.01 30      
Apr 25 05:36 Calm 0.5 Fog VV002 52 52     100%     30.01        
Apr 25 05:33 Calm 1 Fog/Mist VV002 52 52     100%     30.01        
Apr 25 05:27 Calm 2 Fog/Mist CLR 52 52     100%     30.01        
Apr 25 05:12 Calm 1.75 Fog/Mist CLR 52 52     100%     30.01        
Apr 25 04:53 Calm 9 Clear CLR 55 55     100%     30.01 30      
Apr 25 03:53 W 3 7 Clear CLR 56 56     100%     30.02 30.01      
Apr 25 03:22 W 3 3 Fog/Mist CLR 55 55     100%     30.02        
Apr 25 03:14 Calm 1.75 Fog/Mist CLR 54 54     100%     30.01        
Apr 25 02:53 Calm 3 Fog/Mist CLR 52 52     100%     30.01 30.01      
Apr 25 02:44 Calm 3 Fog/Mist CLR 53 53     100%     30.01        
Apr 25 02:32 Calm 1.75 Fog/Mist CLR 54 54     100%     30.01        
Apr 25 02:21 Calm 3 Fog/Mist FEW002 54 54     100%     30.01        
Apr 25 02:13 Calm 2 Fog/Mist FEW002 54 54     100%     30.01        
Notice The following observation data may not be complete
Apr 25 02:10   1 Fog/Mist VV002          %              
Apr 25 02:06 W 3 0.5 Fog VV002 54 54     100%     30.01        
Apr 25 01:57 W 3 0.75 Fog/Mist VV002 54 54     100%     30.01        
Apr 25 01:53 Calm 1.25 Fog/Mist FEW002 54 54     100%     30.01 30      
Apr 25 01:42 Calm 1.75 Fog/Mist CLR 54 54     100%     30.01        
Apr 25 01:35 Calm 2 Fog/Mist CLR 54 54     100%     30.01        
Apr 25 01:21 Calm 1.75 Fog/Mist CLR 55 55     100%     30.02        
Apr 25 01:13 Calm 3 Fog/Mist CLR 55 55     100%     30.02        
Apr 25 00:53 Calm 1.25 Fog/Mist CLR 54 54     100%     30.02 30.01      
Apr 25 00:46 Calm 1.75 Fog/Mist CLR 55 55     100%     30.02        
Apr 25 00:20 Calm 5 Fog/Mist CLR 54 54     100%     30.02        
Apr 25 00:13 Calm 2 Fog/Mist CLR 54 54     100%     30.01        
Apr 25 00:10 Calm 1 Fog/Mist VV002 54 54     100%     30.02        
Apr 24 23:40 Calm 1.75 Fog/Mist CLR 55 55     100%     30.03        
Apr 24 22:53 Calm 9 Clear CLR 57 57     100%     30.03 30.02      
Apr 24 21:53 Calm 10 Mostly Cloudy BKN070 59 58     96%     30.03 30.02      
Apr 24 20:53 NNE 3 10 Mostly Cloudy BKN070 61 57     87%     30.01 30.01      
Apr 24 19:53 N 6 10 Mostly Cloudy BKN065 64 58     81%     29.99 29.99      
Apr 24 18:53 N 5 10 Cloudy OVC060 66 57     73%     29.98 29.98     0
Apr 24 17:53 N 5 10 Cloudy OVC048 66 57     73%     29.98 29.97      
Apr 24 16:53 7 10 Mostly Cloudy SCT027 BKN060 68 58     70%     29.97 29.96      
Apr 24 15:53 NNW 8 10 Cloudy FEW027 BKN042 OVC050 65 58     78%     29.97 29.97 0 0  
Apr 24 15:50 NW 8 10 Cloudy SCT027 BKN033 OVC043 66 59     78%     29.98   0    
Apr 24 15:19 N 7 6 Light Rain and Fog/Mist FEW020 BKN027 OVC032 62 59     90%     29.99   0    
Notice The following observation data may not be complete
Apr 24 15:06   9 Cloudy FEW020 OVC030          %              
Apr 24 14:53 7 10 Cloudy FEW021 OVC029 64 58     81%     29.99 29.98      
Apr 24 14:45 NNW 9 10 Cloudy FEW019 BKN031 OVC042 64 58     81%     29.99        
Apr 24 13:53 N 8 10 Cloudy SCT019 BKN026 OVC032 64 57     78%     30 29.99      
Apr 24 12:53 7 10 Cloudy FEW016 OVC027 63 57     81%     30 29.99      
Apr 24 11:53 NNW 8 10 Cloudy BKN025 OVC033 63 57     81%     30.01 30      
Apr 24 10:53 6 7 Cloudy FEW012 SCT022 OVC027 61 58     90%     30.01 30      
Apr 24 10:35 N 7 8 Cloudy SCT012 BKN018 OVC026 61 58     90%     30.01        
Apr 24 09:53 N 6 7 Cloudy BKN010 BKN015 OVC030 61 58     90%     30 29.99      
Apr 24 09:30 N 6 6 Fog/Mist OVC010 61 58     90%     29.99        
Apr 24 08:53 6 5 Fog/Mist BKN006 BKN010 OVC032 60 58     93%     29.99 29.98      
Apr 24 07:53 NW 6 4 Fog/Mist BKN006 OVC013 57 57     100%     29.98 29.98      
Apr 24 07:51 3 4 Fog/Mist BKN006 OVC013 57 57     100%     29.98        
Apr 24 05:53 Calm 4 Fog/Mist OVC003 56 56     100%     29.95 29.94      
Apr 24 05:25 Calm 5 Fog/Mist BKN004 OVC024 56 56     100%     29.94        
Apr 24 05:10 W 3 6 Fog/Mist SCT004 OVC024 55 55     100%     29.93        
Apr 24 04:53 Calm 5 Fog/Mist BKN004 OVC024 55 55     100%     29.93 29.93      
Apr 24 04:49 Calm 5 Fog/Mist BKN004 BKN024 55 55     100%     29.93        
Apr 24 04:41 Calm 5 Fog/Mist SCT004 BKN025 55 55     100%     29.93        
Notice The following observation data may not be complete
Apr 24 04:06   7 Cloudy FEW004 SCT019 OVC036          %              
Apr 24 03:53 Calm 6 Fog/Mist SCT004 BKN019 OVC036 55 55     100%     29.92 29.92      
Apr 24 03:48 Calm 6 Fog/Mist SCT004 OVC019 55 55     100%     29.92        
Apr 24 03:37 Calm 5 Fog/Mist BKN004 OVC019 55 55     100%     29.93        
Apr 24 03:10 Calm 5 Fog/Mist OVC005 55 55     100%     29.92        
Apr 24 02:53 Calm 5 Fog/Mist BKN003 BKN009 OVC021 55 55     100%     29.92 29.92      
Apr 24 02:48 Calm 5 Fog/Mist BKN005 BKN009 OVC021 55 55     100%     29.92        
Apr 24 02:32 Calm 5 Fog/Mist SCT008 BKN023 OVC035 54 54     100%     29.92        
Apr 24 02:22 Calm 5 Fog/Mist FEW006 SCT023 BKN035 54 54     100%     29.92        
Apr 24 01:53 W 3 7 Partly Cloudy FEW015 SCT035 54 54     100%     29.92 29.92      
Apr 24 00:53 Calm 6 Fog/Mist CLR 54 54     100%     29.91 29.91     0
Apr 24 00:49 Calm 3 Fog/Mist CLR 54 54     100%     29.92        
Apr 24 00:42 NNW 3 1.75 Fog/Mist FEW029 54 54     100%     29.91        
Apr 24 00:31 Calm 8 Partly Cloudy SCT029 55 55     100%     29.92        
Apr 23 23:53 N 3 10 Cloudy FEW018 OVC025 56 55     97%     29.92 29.92      
Apr 23 23:34 Calm 10 Cloudy FEW005 SCT014 OVC025 56 56     100%     29.92        
Apr 23 23:14 N 3 10 Cloudy SCT005 BKN013 OVC030 56 56     100%     29.93        
Apr 23 23:06 Calm 10 Cloudy SCT005 OVC029 56 55     97%     29.93        
Apr 23 22:53 Calm 10 Cloudy OVC029 56 55     97%     29.93 29.92      
Apr 23 21:53 Calm 9 Cloudy FEW009 OVC016 56 55     97%     29.93 29.92 0 0  
Apr 23 21:42 WNW 3 5 Light Rain and Fog/Mist SCT009 OVC018 56 55     97%     29.93   0    
Apr 23 21:09 Calm 5 Light Rain and Fog/Mist BKN009 OVC014 56 55     97%     29.92   0    
Apr 23 21:02 Calm 7 Cloudy BKN011 OVC014 56 55     97%     29.92        
Apr 23 20:53 Calm 9 Cloudy SCT009 OVC015 56 55     97%     29.92 29.91 0    
Apr 23 19:53 Calm 10 Cloudy FEW008 BKN024 OVC035 56 55     97%     29.9 29.9 0    
Apr 23 19:48 Calm 10 Cloudy FEW008 BKN022 OVC032 55 55     100%     29.9   0    
Apr 23 19:40 Calm 10 Cloudy FEW007 SCT023 OVC032 56 55     97%     29.9   0    
Apr 23 19:20 Calm 10 Cloudy SCT023 OVC030 56 55     97%     29.89   0    
Apr 23 18:53 3 3 Light Rain and Fog/Mist FEW010 BKN027 OVC038 56 54     93%     29.89 29.89 0   0
Apr 23 18:46 NW 3 3 Light Rain and Fog/Mist FEW010 SCT014 OVC028 56 54     93%     29.89   0    
Apr 23 18:30 3 9 Cloudy BKN010 BKN023 OVC029 57 55     93%     29.89   0    
Apr 23 17:53 3 10 Light Rain FEW007 OVC019 57 55     93%     29.89 29.88 0    
Apr 23 17:12 3 10 Cloudy FEW009 OVC018 57 56     96%     29.88   0    
Apr 23 16:53 NNW 6 10 Cloudy SCT011 BKN017 OVC022 57 56     96%     29.88 29.87 0    
Apr 23 16:50 NNW 8 10 Cloudy BKN015 OVC022 57 55     94%     29.88   0    
Apr 23 16:30 Calm 10 Cloudy BKN014 OVC020 58 56     93%     29.87   0    
Apr 23 16:19 3 7 Cloudy OVC016 57 57     100%     29.87   0    
Apr 23 15:53 Calm 10 Cloudy BKN011 BKN021 OVC029 58 58     100%     29.87 29.86 0 0  
Apr 23 15:15 5 8 Cloudy SCT005 BKN010 OVC045 57 57     100%     29.88   0    
Apr 23 14:53 7 3 Light Rain and Fog/Mist SCT005 BKN009 OVC014 57 57     100%     29.88 29.87 0    
Apr 23 14:45 3 2.5 Light Rain and Fog/Mist BKN005 BKN014 OVC042 57 57     100%     29.88   0    
Apr 23 14:30 3 2.5 Light Rain and Fog/Mist SCT005 BKN010 OVC016 57 57     100%     29.88   0    
Apr 23 14:07 3 1.5 Light Rain and Fog/Mist SCT005 BKN010 OVC021 57 57     100%     29.88   0    
Apr 23 13:53 3 1.5 Light Rain and Fog/Mist SCT005 BKN009 OVC020 57 57     100%     29.88 29.88 0    
Apr 23 13:06 NNW 3 1.75 Light Rain and Fog/Mist BKN005 OVC017 57 57     100%     29.88   0    
Apr 23 12:41 WNW 6 2.5 Light Rain and Fog/Mist BKN005 OVC015 57 57     100%     29.87   0    
Apr 23 12:26 NW 3 3 Light Rain and Fog/Mist BKN008 OVC015 57 57     100%     29.87   0    
Apr 23 12:16 5 2.5 Light Rain and Fog/Mist BKN008 OVC014 57 57     100%     29.87   0    
Apr 23 12:01 3 1.75 Light Rain and Fog/Mist BKN008 OVC013 57 57     100%     29.87   0    
Apr 23 11:53 3 2 Light Rain and Fog/Mist BKN006 OVC012 58 58     100%     29.87 29.87      
Apr 23 11:12 SW 6 3 Light Rain and Fog/Mist OVC005 58 58     100%     29.87        
Apr 23 10:53 SW 6 2.5 Light Rain OVC006 57        %     29.87 29.86      
Apr 23 10:36 SW 7 1.25 Rain OVC005 57        %     29.87        
Apr 23 10:23 SW 8 2 Light Rain and Fog/Mist OVC005 57 57     100%     29.87   0    
Apr 23 10:05 SSW 6 1.5 Light Rain and Fog/Mist OVC004 57 57     100%     29.86   0    
Apr 23 09:53 7 2.5 Light Rain and Fog/Mist OVC004 57 57     100%     29.86 29.85 0 0  
Apr 23 09:36 SW 6 3 Light Rain and Fog/Mist OVC004 57 57     100%     29.86   0    
Apr 23 09:18 SW 6 1.75 Light Rain OVC004 57        %     29.86   0    
Apr 23 08:53 WSW 6 5 Light Rain and Fog/Mist OVC004 56 56     100%     29.86 29.85 0    
Apr 23 08:42 6 2 Light Rain and Fog/Mist OVC004 56 56     100%     29.85   0    
Apr 23 08:23 WSW 6 1 Light Rain and Fog/Mist OVC004 56 56     100%     29.85   0    
Apr 23 07:59 SW 6 1.75 Fog/Mist OVC005 56 56     100%     29.84        
Apr 23 07:53 7 4 Fog/Mist OVC005 56 56     100%     29.84 29.84 0    
Apr 23 07:48 SW 6 5 Light Rain and Fog/Mist OVC005 55 55     100%     29.84   0    
Apr 23 07:41 WSW 6 2.5 Light Rain and Fog/Mist OVC005 56 56     100%     29.84   0    
Apr 23 07:22 SW 6 3 Light Rain and Fog/Mist OVC005 56 56     100%     29.84   0    
Apr 23 06:53 SW 5 7 Cloudy OVC005 56 56     100%     29.84 29.83 0   0
Apr 23 05:53 7 10 Light Rain OVC005 56 56     100%     29.82 29.81 0    
Apr 23 05:46 6 2.5 Light Rain and Fog/Mist OVC005 56 56     100%     29.82   0    
Apr 23 05:33 7 7 Cloudy OVC005 56 56     100%     29.81   0    
Apr 23 04:53 WSW 8 3 Fog/Mist OVC004 56 56     100%     29.81 29.8      
Apr 23 04:43 7 2 Fog/Mist OVC004 56 56     100%     29.8        
Apr 23 03:53 W 7 7 Cloudy OVC004 56 56     100%     29.8 29.79 0 0  
Apr 23 02:53 W 8 4 Fog/Mist OVC004 57 57     100%     29.79 29.78 0    
Apr 23 02:50 W 9 4 Fog/Mist OVC004 57 57     100%     29.79   0    
Apr 23 02:40 7 2.5 Fog/Mist OVC004 57 57     100%     29.79        
Apr 23 02:21 W 7 5 Fog/Mist OVC004 58 58     100%     29.79        
Apr 23 01:53 W 8 10 Cloudy OVC005 58 58     100%     29.79 29.79 0    
Apr 23 00:53 6 10 Cloudy OVC005 59 59     100%     29.8 29.79 0   0
Apr 22 23:53 NW 5 10 Cloudy OVC006 61 61     100%     29.81 29.8      
Apr 22 23:28 Calm 10 Cloudy BKN006 BKN012 OVC021 61 61     100%     29.82        
Apr 22 22:53 3 10 Cloudy SCT006 BKN010 OVC016 62 62     100%     29.83 29.82 0    
Apr 22 22:46 3 10 Cloudy SCT005 BKN010 OVC016 62 62     100%     29.83   0    
Apr 22 22:26 NNW 3 10 Cloudy BKN014 OVC100 62 62     100%     29.84   0    
Apr 22 21:53 Calm 10 Mostly Cloudy BKN090 BKN110 61 61     100%     29.84 29.83 0 0  
Apr 22 20:53 Calm 5 Light Rain and Fog/Mist OVC080 61 61     100%     29.84 29.83 0    
Apr 22 20:20 NE 3 5 Light Rain and Fog/Mist SCT048 OVC070 61 61     100%     29.84   0    
Apr 22 20:08 NE 5 3 Rain and Fog/Mist FEW015 SCT023 OVC048 61 61     100%     29.84   0    
Apr 22 19:59 NNE 8 2 Heavy Rain and Fog/Mist SCT019 SCT029 OVC042 61 61     100%     29.83   0    
Apr 22 19:53 NNE 10 1.75 Heavy Rain and Fog/Mist FEW017 BKN029 OVC045 62 61     96%     29.83 29.83 0    
Apr 22 19:15 3 10 Cloudy BKN024 BKN031 OVC040 65 60     84%     29.82        
Apr 22 18:53 W 3 10 Cloudy BKN030 BKN035 OVC075 66 60     81%     29.81 29.8      
Apr 22 17:53 S 3 10 Cloudy OVC085 68 61     78%     29.82 29.81      
Apr 22 17:23 WSW 3 10 Mostly Cloudy SCT026 SCT042 BKN070 68 61     78%     29.82        
Apr 22 17:11 SSW 6 10 Cloudy BKN026 OVC043 68 61     78%     29.82        
Apr 22 16:53 SE 6 10 Cloudy SCT028 OVC041 67 59     76%     29.82 29.82      
Apr 22 16:51 SE 6 10 Cloudy SCT025 SCT030 OVC041 68 59     73%     29.82        
Apr 22 16:22 SSE 8 10 Cloudy BKN025 BKN032 OVC041 69 61     75%     29.82        
Apr 22 15:53 S 13 10 Partly Cloudy FEW026 SCT031 69 61     75%     29.83 29.82      
Apr 22 14:53 SSE 16 10 Partly Cloudy FEW055 SCT080 69 62     78%     29.85 29.83      
Apr 22 13:53 SSE 16 10 Cloudy FEW015 BKN048 OVC060 66 63     90%     29.88 29.87      
Apr 22 13:32 S 16 10 Mostly Cloudy BKN015 BKN047 66 63     90%     29.89        
Apr 22 13:19 S 16 10 Mostly Cloudy BKN014 65 63     93%     29.89        
Apr 22 12:53 S 18 10 Mostly Cloudy BKN016 65 62     90%     29.89 29.88 0   1
Apr 22 12:45 S 15 10 Mostly Cloudy BKN016 BKN023 BKN030 64 62     93%     29.89   0    
Apr 22 12:38 S 16 10 Mostly Cloudy BKN014 BKN022 BKN030 64 62     93%     29.89   0    
Apr 22 11:53 SSE 17 10 Cloudy FEW012 BKN028 OVC036 64 63     96%     29.89 29.88 0    
Apr 22 11:37 SSE 17 9 Cloudy FEW008 BKN030 OVC036 62 62     100%     29.89   0    
Apr 22 10:53 E 10 8 Cloudy FEW008 BKN014 OVC021 60 60     100%     29.91 29.9 0    
Apr 22 10:49 E 10 8 Cloudy BKN014 OVC021 61 61     100%     29.9   0    
Jun 11 15:53 SSW 15 10 Clear CLR 89 65     45%   91 30.01 30      
Jun 08 23:53 Calm 10 Clear CLR 62 59     90%     29.93 29.92      
Jun 08 22:53 Calm 10 Clear CLR 64 60     87%     29.92 29.91      
Jun 08 18:53 ENE 7 10 Clear CLR 77 51     40%   76 29.9 29.89      
Jun 08 11:53 NNE 11 10 Partly Cloudy SCT050 74 57     56%   74 30 29.99      
Jun 07 14:53 NE 15 10 Clear CLR 82 53     37%   81 29.92 29.91      
Jun 07 10:53 NE 10 10 Clear CLR 78 58     50%   78 29.96 29.94      
Jun 07 08:53 NNE 11 10 Clear CLR 72 60     66%   72 29.96 29.94      
Notice The following observation data may not be complete
Jun 06 07:01   1 Fog/Mist VV002          %              
Jun 06 05:53 NE 5 0.25 Fog VV002 71 71     100%   73 29.79 29.78      
Jun 06 05:30 NE 3 0.75 Fog/Mist VV002 71 71     100%   73 29.79        
Jun 05 13:53 S 7 10 Cloudy BKN023 BKN031 OVC060 79 71     77%   82 29.76 29.75